Weather in Muzhich'e

Russia / Voronezh Oblast     50°43′51″N   41°03′55″E
temp.,
°C
wind,
m/s
gust,
m/s
humid.,
%
clouds,
%
prec.,
mm/h
press.,
hPa
HPBL,
m
4 march, thu
thu400:00−3w511900 0.0 1018303
03:00−2wsw6129447 0.0 1017498
06:00−1wsw81391100 0.0 1015751
09:00−1wsw81389100 0.1 1014692
12:00+1wsw8148258 0.0 1012855
15:00+4wsw8146729 0.0 1010952
18:00+2sw717720 0.0 1008604
21:00+2sw819780 0.0 1006570
5 march, fri
fri500:00+3wsw8178649 0.0 1005747
03:00+2wsw6149375 0.8 1005567
06:00+2wsw61394100 0.4 1005606
09:00+2w51096100 0.4 1007665
12:00+1wnw5893100 0.1 1009513
15:00+1nw5782100 0.2 1011731
18:00−1n3486100 0.1 1012397
21:00−1ne2285100 0.1 1015119
6 march, sat
sat600:00−2e2382100 0.0 1014173
03:00−1e3481100 0.0 1014405
06:00−2e3588100 0.1 1014444
09:00−2ene3477100 0.1 1014514
12:00−2ne2382100 0.2 1014415
15:00−1ene2374100 0.4 1014616
18:00−3ene128697 0.2 1014240
21:00−3ssw239598 3.0 1015217
7 march, sun
sun700:00−4nw61093100 3.8 1016529
03:00−5nw61093100 4.5 1018516
06:00−6nw498993 0.1 1019505
09:00−6w597749 0.1 1020665
12:00−3wsw7117134 0.0 10171082
15:00−2sw9146967 0.0 10141237
18:00−2sw81668100 0.0 10121008
21:00−2wsw91770100 0.0 10101101
8 march, mon
mon800:00−2wsw8167894 0.0 1009918
03:00−3wsw7158088 0.0 1008626
06:00−2sw81585100 0.0 1006693
09:00−2wsw101593100 0.8 1006933
12:000wsw101586100 0.4 10061237
15:00−1wnw81372100 0.9 10081243
18:00−5nw376875 0.0 1011163
21:00−6nnw237285 0.0 101358